Location: Chugcreek
(42.0500°N, 104.9196°W)
Time: 16:59:11
(UTC+00:00)

X-37B - Pass Details

Date: 27 January 2022
Orbit: 329 x 342 km, 45.0° (Epoch: 18 May)

Event Time Altitude Azimuth Distance (km) Brightness Sun altitude
Rises 00:51:04 0° 206° (SSW) 2,105 5.0 -8.5°
Reaches altitude 10° 00:53:39 10° 180° (S) 1,269 3.4 -8.9°
Maximum altitude 00:55:20 15° 144° (SE) 1,044 2.6 -9.2°
Enters shadow 00:56:57 10° 109° (ESE) 1,254 2.7 -9.5°
